| time (UTC) | temp C | wind direction | speed KPH | gust KPH | rain 1hr cm | rain 24hr cm | rain mn cm | humidity % | barometer mb |
| 20260502163315 | 22 | 50 | 16.1 | 24.1 | 0.00 | 0.00 | 0.00 | 10 | 1020.0 |
| 20260502162115 | 22 | 62 | 19.3 | 27.4 | 0.00 | 0.00 | 0.00 | 10 | 1020.0 |
| 20260502160915 | 22 | 71 | 20.9 | 24.1 | 0.00 | 0.00 | 0.00 | 11 | 1020.0 |
| 20260502152115 | 22 | 86 | 19.3 | 24.1 | 0.00 | 0.00 | 0.00 | 12 | 1021.0 |
| 20260502150915 | 22 | 56 | 11.3 | 20.9 | 0.00 | 0.00 | 0.00 | 12 | 1021.0 |
| 20260502123316 | 21 | 82 | 14.5 | 25.7 | 0.00 | 0.00 | 0.00 | 20 | 1022.0 |
| 20260502122115 | 21 | 109 | 9.7 | 24.1 | 0.00 | 0.00 | 0.00 | 20 | 1023.0 |
| 20260502120915 | 21 | 318 | 3.2 | 25.7 | 0.00 | 0.00 | 0.00 | 21 | 1022.0 |
| 20260502115714 | 20 | 76 | 12.9 | 17.7 | 0.00 | 0.00 | 0.00 | 24 | 1023.0 |
| 20260502114515 | 20 | 76 | 12.9 | 17.7 | 0.00 | 0.00 | 0.00 | 24 | 1023.0 |
| 20260502113315 | 20 | 57 | 14.5 | 24.1 | 0.00 | 0.00 | 0.00 | 25 | 1023.0 |
| 20260502112116 | 20 | 60 | 12.9 | 24.1 | 0.00 | 0.00 | 0.00 | 24 | 1023.0 |
| 20260502110916 | 19 | 60 | 16.1 | 25.7 | 0.00 | 0.00 | 0.00 | 26 | 1023.0 |
| 20260502105715 | 19 | 86 | 12.9 | 22.5 | 0.00 | 0.00 | 0.00 | 28 | 1024.0 |
| 20260502104515 | 18 | 50 | 16.1 | 25.7 | 0.00 | 0.00 | 0.00 | 27 | 1024.0 |
| 20260502103315 | 18 | 87 | 14.5 | 27.4 | 0.00 | 0.00 | 0.00 | 30 | 1024.0 |
| 20260502102116 | 18 | 59 | 16.1 | 25.7 | 0.00 | 0.00 | 0.00 | 31 | 1024.0 |
| 20260502100916 | 18 | 99 | 16.1 | 22.5 | 0.00 | 0.00 | 0.00 | 31 | 1024.0 |
| 20260502090915 | 17 | 57 | 24.1 | 30.6 | 0.00 | 0.00 | 0.00 | 33 | 1024.0 |
| 20260502070914 | 11 | 95 | 8.0 | 12.9 | 0.00 | 0.00 | 0.00 | 50 | 1025.0 |
| 20260502065714 | 10 | 42 | 11.3 | 12.9 | 0.00 | 0.00 | 0.00 | 53 | 1025.0 |
| 20260502064514 | 10 | 67 | 8.0 | 9.7 | 0.00 | 0.00 | 0.00 | 57 | 1025.0 |
| 20260502063314 | 9 | 76 | 6.4 | 9.7 | 0.00 | 0.00 | 0.00 | 59 | 1025.0 |
| 20260502062114 | 8 | 72 | 9.7 | 11.3 | 0.00 | 0.00 | 0.00 | 63 | 1025.0 |
| 20260502060914 | 6 | 58 | 9.7 | 9.7 | 0.00 | 0.00 | 0.00 | 71 | 1025.0 |
| 20260502055714 | 5 | 73 | 8.0 | 8.0 | 0.00 | 0.00 | 0.00 | 73 | 1025.0 |
| 20260502054514 | 5 | 73 | 8.0 | 8.0 | 0.00 | 0.00 | 0.00 | 73 | 1025.0 |
| 20260502053314 | 4 | 251 | 1.6 | 3.2 | 0.00 | 0.00 | 0.00 | 72 | 1025.0 |
| 20260502052114 | 4 | 67 | 1.6 | 3.2 | 0.00 | 0.00 | 0.00 | 72 | 1025.0 |
| 20260502050914 | 4 | 298 | 0.0 | 1.6 | 0.00 | 0.00 | 0.00 | 78 | 1025.0 |
| 20260502045714 | 3 | 193 | 0.0 | 3.2 | 0.00 | 0.00 | 0.00 | 80 | 1025.0 |
| 20260502044514 | 3 | 193 | 0.0 | 3.2 | 0.00 | 0.00 | 0.00 | 80 | 1025.0 |
| 20260502043314 | 3 | 193 | 1.6 | 3.2 | 0.00 | 0.00 | 0.00 | 76 | 1025.0 |
| 20260502042115 | 3 | 218 | 3.2 | 3.2 | 0.00 | 0.00 | 0.00 | 76 | 1025.0 |
| 20260502040915 | 3 | 207 | 3.2 | 3.2 | 0.00 | 0.00 | 0.00 | 78 | 1025.0 |
| 20260502035715 | 3 | 338 | 0.0 | 3.2 | 0.00 | 0.00 | 0.00 | 78 | 1025.0 |
| 20260502034515 | 3 | 228 | 3.2 | 3.2 | 0.00 | 0.00 | 0.00 | 73 | 1025.0 |
| 20260502033316 | 4 | 210 | 1.6 | 3.2 | 0.00 | 0.00 | 0.00 | 69 | 1025.0 |
| 20260502032119 | 4 | 92 | 1.6 | 3.2 | 0.00 | 0.00 | 0.00 | 70 | 1025.0 |
| 20260502030915 | 4 | 60 | 3.2 | 3.2 | 0.00 | 0.00 | 0.00 | 68 | 1025.0 |
| 20260502024515 | 5 | 281 | 1.6 | 3.2 | 0.00 | 0.00 | 0.00 | 68 | 1025.0 |
| 20260502023315 | 5 | 13 | 1.6 | 3.2 | 0.00 | 0.00 | 0.00 | 67 | 1025.0 |
| 20260502022115 | 5 | 181 | 1.6 | 3.2 | 0.00 | 0.00 | 0.00 | 66 | 1025.0 |
| 20260502020915 | 5 | 46 | 1.6 | 3.2 | 0.00 | 0.00 | 0.00 | 66 | 1025.0 |
| 20260502015716 | 5 | 287 | 3.2 | 4.8 | 0.00 | 0.00 | 0.00 | 66 | 1025.0 |
| 20260502014515 | 5 | 287 | 3.2 | 4.8 | 0.00 | 0.00 | 0.00 | 66 | 1025.0 |
| 20260502013315 | 5 | 222 | 3.2 | 4.8 | 0.00 | 0.00 | 0.00 | 66 | 1026.0 |
| 20260502012115 | 5 | 225 | 4.8 | 4.8 | 0.00 | 0.00 | 0.00 | 66 | 1026.0 |
| 20260502010915 | 6 | 236 | 3.2 | 4.8 | 0.00 | 0.00 | 0.00 | 67 | 1026.0 |
| 20260502005715 | 6 | 17 | 3.2 | 6.4 | 0.00 | 0.00 | 0.00 | 65 | 1026.0 |
| 20260502004515 | 6 | 51 | 4.8 | 4.8 | 0.00 | 0.00 | 0.00 | 64 | 1026.0 |
| 20260502003314 | 6 | 65 | 1.6 | 3.2 | 0.00 | 0.00 | 0.00 | 63 | 1026.0 |
| 20260502002114 | 6 | 76 | 1.6 | 1.6 | 0.00 | 0.00 | 0.00 | 63 | 1026.0 |
| 20260502000915 | 7 | 109 | 1.6 | 8.0 | 0.00 | 0.00 | 0.00 | 57 | 1026.0 |
| 20260501235714 | 7 | 62 | 6.4 | 8.0 | 0.00 | 0.00 | 0.00 | 56 | 1026.0 |
| 20260501234515 | 7 | 69 | 4.8 | 4.8 | 0.00 | 0.00 | 0.00 | 55 | 1026.0 |
| 20260501233315 | 8 | 79 | 1.6 | 4.8 | 0.00 | 0.00 | 0.00 | 53 | 1026.0 |
| 20260501232114 | 8 | 52 | 3.2 | 3.2 | 0.00 | 0.00 | 0.00 | 54 | 1026.0 |
| 20260501230914 | 8 | 57 | 3.2 | 6.4 | 0.00 | 0.00 | 0.00 | 54 | 1026.0 |
| 20260501225715 | 8 | 57 | 3.2 | 6.4 | 0.00 | 0.00 | 0.00 | 54 | 1026.0 |
| 20260501224515 | 8 | 128 | 1.6 | 4.8 | 0.00 | 0.00 | 0.00 | 56 | 1026.0 |
| 20260501223317 | 8 | 198 | 3.2 | 3.2 | 0.00 | 0.00 | 0.00 | 55 | 1026.0 |
| 20260501222115 | 8 | 206 | 3.2 | 4.8 | 0.00 | 0.00 | 0.00 | 55 | 1026.0 |
| 20260501220915 | 9 | 158 | 1.6 | 3.2 | 0.00 | 0.00 | 0.00 | 51 | 1026.0 |
| 20260501215714 | 9 | 74 | 3.2 | 4.8 | 0.00 | 0.00 | 0.00 | 49 | 1026.0 |
| 20260501214514 | 9 | 74 | 3.2 | 4.8 | 0.00 | 0.00 | 0.00 | 49 | 1026.0 |
| 20260501213315 | 10 | 34 | 3.2 | 3.2 | 0.00 | 0.00 | 0.00 | 49 | 1027.0 |
| 20260501212115 | 10 | 34 | 3.2 | 3.2 | 0.00 | 0.00 | 0.00 | 49 | 1027.0 |
| 20260501210914 | 10 | 63 | 3.2 | 3.2 | 0.00 | 0.00 | 0.00 | 47 | 1027.0 |
| 20260501205714 | 10 | 74 | 3.2 | 4.8 | 0.00 | 0.00 | 0.00 | 46 | 1027.0 |
| 20260501204515 | 11 | 177 | 3.2 | 4.8 | 0.00 | 0.00 | 0.00 | 46 | 1026.0 |
| 20260501203314 | 11 | 115 | 1.6 | 3.2 | 0.00 | 0.00 | 0.00 | 42 | 1026.0 |
| 20260501202115 | 11 | 74 | 3.2 | 4.8 | 0.00 | 0.00 | 0.00 | 40 | 1027.0 |
| 20260501200914 | 12 | 61 | 3.2 | 3.2 | 0.00 | 0.00 | 0.00 | 37 | 1027.0 |
| 20260501195714 | 13 | 71 | 3.2 | 4.8 | 0.00 | 0.00 | 0.00 | 36 | 1027.0 |
| 20260501194514 | 13 | 77 | 3.2 | 4.8 | 0.00 | 0.00 | 0.00 | 34 | 1027.0 |
| 20260501193314 | 13 | 47 | 4.8 | 6.4 | 0.00 | 0.00 | 0.00 | 33 | 1026.0 |
| 20260501192114 | 14 | 55 | 4.8 | 6.4 | 0.00 | 0.00 | 0.00 | 32 | 1027.0 |
| 20260501190914 | 14 | 39 | 4.8 | 6.4 | 0.00 | 0.00 | 0.00 | 32 | 1027.0 |
| 20260501185714 | 15 | 80 | 8.0 | 9.7 | 0.00 | 0.00 | 0.00 | 31 | 1026.0 |
| 20260501184514 | 15 | 80 | 8.0 | 9.7 | 0.00 | 0.00 | 0.00 | 31 | 1026.0 |
| 20260501183314 | 15 | 70 | 8.0 | 14.5 | 0.00 | 0.00 | 0.00 | 30 | 1026.0 |
| 20260501182114 | 15 | 50 | 14.5 | 17.7 | 0.00 | 0.00 | 0.00 | 29 | 1026.0 |
| 20260501180914 | 16 | 70 | 11.3 | 16.1 | 0.00 | 0.00 | 0.00 | 28 | 1026.0 |
| 20260501175714 | 16 | 50 | 11.3 | 19.3 | 0.00 | 0.00 | 0.00 | 28 | 1026.0 |
| 20260501174514 | 16 | 61 | 11.3 | 24.1 | 0.00 | 0.00 | 0.00 | 27 | 1026.0 |
| 20260501173314 | 16 | 75 | 9.7 | 25.7 | 0.00 | 0.00 | 0.00 | 26 | 1026.0 |
| 20260501172116 | 16 | 65 | 20.9 | 29.0 | 0.00 | 0.00 | 0.00 | 26 | 1026.0 |
| 20260501170916 | 17 | 48 | 24.1 | 35.4 | 0.00 | 0.00 | 0.00 | 25 | 1026.0 |
| 20260501165716 | 17 | 65 | 22.5 | 29.0 | 0.00 | 0.00 | 0.00 | 24 | 1026.0 |
| 20260501164516 | 17 | 71 | 16.1 | 29.0 | 0.00 | 0.00 | 0.00 | 24 | 1026.0 |